OH2HCY-3 Weather Reports


time (UTC)temp
F
wind
direction
speed
knots
gust
knots
rain 1hr
in
rain 24hr
in
rain mn
in
humidity
%
barometer
mb
20260506123848 46 211 7.8 16.5 0.00 0.00 0.00 1014.1
20260506122111 48 230 6.1 13.9 0.00 0.00 0.00 42 1014.4
20260506120226 48 198 6.1 16.5 0.00 0.00 0.00 42 1014.4
20260506114531 49 221 6.1 14.8 0.00 0.00 0.00 47 1014.4
20260506112912 48 232 7.8 18.2 0.00 0.00 0.00 48
20260506112909 48 232 7.8 18.2 0.00 0.00 0.00 48 1014.5
20260506111107 48 221 5.2 15.6 0.00 0.00 0.00 49 1014.4
20260506105246 46 211 6.1 14.8 0.00 0.00 0.00 52 1014.5
20260506103546 47 207 6.1 15.6 0.00 0.00 0.00 48 1014.4
20260506101856 48 188 5.2 12.2 0.00 0.00 0.00 52 1014.3
20260506100032 48 202 7.0 13.9 0.00 0.00 0.00 50 1014.1
20260506094431 49 208 6.1 11.3 0.00 0.00 0.00 46 1013.9
20260506092516 49 190 3.5 12.2 0.00 0.00 0.00 45 1013.7
20260506090747 50 179 4.3 10.4 0.00 0.00 0.00 1013.5
20260506085046 49 211 4.3 9.6 0.00 0.00 0.00 38 1013.5
20260506083446 48 235 4.3 10.4 0.00 0.00 0.00 45 1013.4
20260506081807 48 187 4.3 12.2 0.00 0.00 0.00 43 1013.5
20260506070457 0 222 4.3 8.7 0.00 0.00 0.00 43 1013.2
20260506060951 44 162 3.5 8.7 0.00 0.00 0.00 56 1013.0
20260506043805 39 182 3.5 7.8 0.00 0.00 0.00 71 1012.1
20260506042021 38 196 2.6 7.8 0.00 0.00 0.00 74 1011.9
20260506040251 37 182 2.6 6.1 0.00 0.00 0.00 78 1011.7
20260506034522 35 112 1.7 5.2 0.00 0.00 0.00 83 1011.7
20260506032648 32 127 1.7 4.3 0.00 0.00 0.00 1011.5
20260506030714 31 134 1.7 5.2 0.00 0.00 0.00 86 1011.3
20260506022956 30 179 2.6 7.8 0.00 0.00 0.00 85 1011.0
20260506015435 0 139 2.6 0.0 0.00 0.00 0.00 84 1010.7
20260506015431 30 139 2.6 7.0 0.00 0.00 0.00 84 1010.7
20260506013707 30 165 1.7 6.1 0.00 0.00 0.00 84 1010.5
20260506011948 30 140 1.7 5.2 0.00 0.00 0.00 84 1010.4
20260506004506 30 153 2.6 5.2 0.00 0.00 0.00 82 1010.1
20260506002746 31 101 2.6 5.2 0.00 0.00 0.00 82 1010.0
20260506001004 31 139 5.2 0.0 0.00 0.00 0.00 80 1009.9
20260506001001 31 139 2.6 5.2 0.00 0.00 0.00 80 1009.9
20260505235106 32 195 1.7 8.7 0.00 0.00 0.00 78 1009.7
20260505231629 33 170 1.7 5.2 0.00 0.00 0.00 75 1009.7
20260505231626 33 170 1.7 5.2 0.00 0.00 0.00 75 1009.7
20260505225751 34 106 1.7 5.2 0.00 0.00 0.00 72 1009.5
20260505224011 35 171 2.6 6.1 0.00 0.00 0.00 71 1009.4
20260505222236 37 145 2.6 6.1 0.00 0.00 0.00 68 1009.3
20260505220541 37 168 2.6 6.1 0.00 0.00 0.00 67 1009.3
20260505212736 38 169 3.5 6.1 0.00 0.00 0.00 64 1009.2
20260505210831 38 179 3.5 7.0 0.00 0.00 0.00 63 1009.1
20260505205131 38 174 3.5 7.0 0.00 0.00 0.00 62 1008.9
20260505203321 39 168 2.6 6.1 0.00 0.00 0.00 59 1008.7
20260505201626 39 166 3.5 6.1 0.00 0.00 0.00 57 1008.6
20260505195802 40 149 2.6 7.0 0.00 0.00 0.00 51
20260505194046 41 178 3.5 7.0 0.00 0.00 0.00 54 1008.3
20260505192326 41 193 3.5 7.0 0.00 0.00 0.00 55 1008.3
20260505190456 41 183 3.5 7.0 0.00 0.00 0.00 54 1008.1
20260505184704 42 181 3.5 7.0 0.00 0.00 0.00 52 1008.0
20260505182831 42 174 4.3 9.6 0.00 0.00 0.00 50 1007.8
20260505180926 43 190 3.5 7.8 0.00 0.00 0.00 53 1007.5
20260505175040 44 200 3.5 7.0 0.00 0.00 0.00 55 1007.3
20260505173145 44 212 5.2 10.4 0.00 0.00 0.00 55 1007.1
20260505171155 45 209 4.3 10.4 0.00 0.00 0.00 54 1007.0
20260505165330 46 216 3.5 8.7 0.00 0.00 0.00 51 1006.9
20260505163536 46 222 4.3 13.0 0.00 0.00 0.00 46 1006.9
20260505161927 48 230 8.7 8.7 0.00 0.00 0.00 40 1006.8
20260505161925 48 230 3.5 8.7 0.00 0.00 0.00 40 1006.8
20260505152630 49 220 5.2 14.8 0.00 0.00 0.00 40 1006.5
20260505150740 50 242 4.3 10.4 0.00 0.00 0.00 37 1006.4